Lapse_Rate
5.4 5.4 5.5 5.5 5.5 5.4 5.4 5.4 5.4 5.4 5.5 5.4 5.5 5.4 5.4 5.4 5.4 5.3 5.2 5.1 5.1 5.0 5.3 5.4 5.3 5.3 5.4 5.4 5.5 5.6 5.5 5.4 5.3 5.6 5.9 5.9 6.0 6.1 6.0 6.0 5.9 6.1 6.2
5.4 5.4 5.5 5.6 5.5 5.4 5.4 5.5 5.6 5.6 5.5 5.4 5.4 5.5 5.5 5.6 5.6 5.5 5.4 5.2 5.4 5.3 5.4 5.5 5.4 5.4 5.4 5.4 5.4 5.6 5.6 5.5 5.6 5.6 5.6 5.7 5.9 6.1 6.1 6.1 6.1 6.0 6.0
5.5 5.4 5.4 5.5 5.6 5.6 5.5 5.8 5.7 5.7 5.5 5.5 5.4 5.5 5.5 5.7 5.8 5.7 5.6 5.5 5.7 5.7 5.8 5.6 5.6 5.6 5.4 5.3 5.3 5.4 5.6 5.6 5.7 5.7 5.8 5.8 5.7 5.7 5.9 6.1 6.1 6.1 6.0
5.6 5.5 5.5 5.5 5.3 5.6 5.6 5.5 5.8 5.9 5.7 5.6 5.5 5.5 5.7 5.9 5.7 5.6 5.9 5.8 6.0 6.0 5.7 5.8 5.9 5.6 5.7 5.7 5.5 5.6 5.5 5.8 6.0 5.9 5.9 5.9 5.9 5.9 5.8 5.9 6.0 6.1 6.1
5.7 5.9 5.8 5.6 5.4 5.6 5.7 5.7 5.8 6.2 6.0 5.9 5.9 6.0 6.1 6.1 6.1 5.9 5.8 5.8 6.0 5.6 5.8 5.7 5.5 5.6 5.7 5.5 5.7 5.5 5.5 5.6 5.6 5.8 5.9 5.9 5.9 6.1 6.1 6.0 6.0 6.1 6.1
6.1 6.1 6.2 6.0 5.9 5.8 5.4 5.5 5.7 5.9 6.1 6.1 5.9 6.0 6.1 6.0 6.0 5.9 5.6 5.7 5.9 5.6 5.8 5.8 5.6 5.6 5.7 5.9 5.8 5.5 5.8 5.8 5.8 5.8 5.8 5.9 6.0 5.9 6.2 6.2 6.1 6.0 6.0
6.3 6.0 6.1 6.2 5.9 5.7 5.6 5.7 6.1 6.1 5.9 6.3 6.3 6.2 5.8 5.6 5.6 5.6 5.6 5.6 5.8 5.6 5.8 5.6 5.6 6.0 5.9 6.1 6.2 5.9 5.9 5.9 5.9 6.0 6.0 6.0 6.0 6.0 5.9 6.2 6.3 6.2 6.0
6.0 6.1 6.3 6.0 6.1 6.2 6.1 6.1 5.9 6.0 5.8 6.0 6.2 5.8 5.7 5.5 5.6 5.6 5.6 5.6 5.6 5.6 5.6 5.6 5.7 5.8 5.7 6.0 6.1 5.7 5.9 6.0 6.0 5.8 6.2 6.1 6.0 6.0 5.9 6.0 6.3 6.4 6.3
6.2 6.1 5.9 5.8 6.0 6.1 6.0 6.1 5.8 5.6 5.8 5.9 6.1 6.0 5.8 5.6 5.6 5.6 5.7 5.7 5.8 5.9 5.8 5.9 6.0 5.9 5.9 5.8 5.9 6.0 5.8 5.9 5.6 5.8 6.1 6.1 6.4 6.3 6.1 6.0 6.1 6.3 6.4
6.1 5.9 5.8 5.9 5.8 6.3 6.5 6.5 6.3 6.0 5.7 5.7 5.9 6.0 6.0 5.9 5.9 5.9 5.7 5.7 5.9 6.1 6.0 6.1 6.0 5.6 5.8 5.9 5.8 6.0 5.9 6.0 5.9 5.8 5.9 6.0 6.0 6.2 6.3 6.3 6.0 6.2 6.5
5.9 6.0 5.7 5.8 6.1 6.5 6.4 6.1 6.0 5.9 5.9 5.8 6.1 6.3 6.3 6.4 6.3 6.3 6.3 6.0 6.2 6.2 6.5 6.3 6.1 5.9 6.2 6.0 5.9 6.1 6.0 5.7 5.7 5.6 5.9 5.9 5.7 5.9 6.2 6.3 6.1 6.0 6.2
5.9 6.0 5.8 6.2 6.6 6.4 6.4 6.2 6.1 6.1 6.3 6.3 6.2 6.2 6.5 6.4 6.3 6.4 6.6 6.4 6.4 6.1 6.2 6.7 6.6 6.4 6.3 6.2 6.3 6.1 5.9 5.9 5.8 5.8 5.7 6.0 5.8 5.4 5.8 6.2 6.3 5.9 5.9
6.0 6.0 6.2 6.3 6.4 6.6 6.7 6.5 6.4 6.5 6.4 6.4 6.4 6.3 6.2 6.0 6.2 6.0 6.0 6.2 6.4 6.3 6.2 6.2 6.1 6.3 6.2 6.2 6.2 6.0 5.8 5.7 5.8 5.6 5.4 5.8 5.5 5.4 5.8 6.0 6.2 6.3 5.8
5.9 6.1 6.5 6.6 6.7 6.9 6.9 6.6 6.5 6.6 6.5 6.4 6.2 6.1 6.1 6.0 6.0 6.0 5.8 5.8 6.1 6.3 6.1 6.1 6.0 6.0 5.9 6.1 6.0 5.9 5.7 5.3 5.0 4.8 5.3 5.6 5.7 5.5 5.8 5.9 5.9 6.1 6.0
6.1 6.1 6.0 6.1 6.1 6.3 6.3 6.3 6.4 6.4 6.3 6.3 6.4 6.4 6.2 6.0 5.9 5.8 5.8 5.9 6.0 6.2 6.2 5.9 5.8 5.6 5.8 6.1 6.1 6.1 6.1 5.5 5.2 4.7 4.8 5.3 5.7 6.1 5.9 6.2 6.1 6.0 6.0
6.2 6.2 6.2 6.2 6.3 6.4 6.3 6.3 6.3 6.4 6.5 6.5 6.6 6.5 6.5 6.4 6.2 6.1 5.9 5.8 5.9 6.0 6.5 6.2 5.8 5.7 5.7 5.9 5.7 5.9 6.0 5.7 5.8 5.5 5.4 5.8 6.0 5.9 5.9 6.1 6.2 6.0 5.9
6.2 6.2 6.2 6.3 6.3 6.4 6.4 6.5 6.5 6.6 6.6 6.5 6.5 6.5 6.4 6.3 6.2 6.2 6.3 6.3 6.2 6.2 6.4 6.7 6.4 6.1 6.0 5.9 5.9 5.8 5.8 6.0 5.8 5.7 5.8 6.0 6.1 6.0 5.9 5.9 5.4 5.9 5.8
6.2 6.3 6.4 6.4 6.4 6.4 6.5 6.5 6.5 6.5 6.5 6.5 6.4 6.3 6.4 6.5 6.4 6.4 6.3 6.3 6.2 6.2 6.3 6.6 6.5 6.2 6.0 5.9 5.9 5.9 5.7 5.8 5.8 5.7 5.6 5.7 5.8 5.6 5.5 5.7 5.7 5.9 5.8
6.1 6.2 6.3 6.3 6.4 6.4 6.4 6.4 6.3 6.3 6.3 6.3 6.2 6.1 6.2 6.4 6.5 6.5 6.5 6.4 6.3 6.1 6.2 6.4 6.5 6.4 6.2 6.0 6.1 6.0 5.9 5.8 5.8 5.7 5.6 5.6 5.7 5.7 5.6 5.9 5.7 5.6 5.6
6.1 6.1 6.2 6.2 6.1 6.1 6.1 6.2 6.2 6.3 6.2 6.2 6.3 6.3 6.3 6.3 6.3 6.3 6.3 6.3 6.2 6.1 6.1 6.3 6.5 6.6 6.5 6.2 6.1 6.3 6.1 6.1 6.0 5.8 5.7 5.6 5.6 5.7 5.7 5.8 5.7 5.8 5.8
6.1 6.2 6.2 6.2 6.1 6.1 6.1 6.1 6.1 6.1 6.1 6.2 6.2 6.3 6.3 6.2 6.2 6.2 6.2 6.1 6.1 6.2 6.2 6.3 6.4 6.6 6.6 6.5 6.3 6.1 6.5 6.3 6.1 6.1 6.0 5.9 5.8 5.9 5.9 5.9 5.6 5.7 5.7
6.1 6.3 6.3 6.3 6.3 6.2 6.2 6.1 6.1 6.1 6.3 6.3 6.2 6.3 6.2 6.2 6.2 6.2 6.2 6.2 6.1 6.1 6.0 6.0 6.1 6.1 6.3 6.3 6.5 6.3 6.1 6.2 6.5 6.0 6.0 6.1 6.0 5.9 6.0 6.2 6.0 5.9 5.9
6.2 6.2 6.2 6.1 6.1 6.1 6.1 6.0 6.1 6.3 6.3 6.3 6.2 6.2 6.2 6.1 6.0 5.9 6.0 6.0 6.1 6.2 6.2 6.1 5.8 5.7 5.8 5.4 5.5 5.5 5.5 5.6 5.9 5.9 5.9 6.2 5.9 6.0 6.1 6.0 5.7 5.8 5.9
6.1 6.0 5.9 6.0 6.1 6.1 6.0 6.1 6.1 6.1 6.1 6.2 6.2 6.2 6.2 6.1 6.0 5.8 5.7 5.5 5.5 5.5 5.6 5.6 5.7 5.6 5.4 5.2 5.1 5.1 5.1 5.2 5.4 5.4 5.5 5.9 5.7 5.9 5.9 6.0 6.0 6.0 6.0
6.1 6.0 6.0 6.0 5.9 6.0 5.8 5.9 6.1 6.1 6.0 6.1 6.1 6.1 6.0 5.9 5.9 5.9 5.7 5.5 5.4 5.2 5.2 5.1 4.9 5.0 5.1 5.1 4.9 4.9 4.9 5.0 5.3 5.2 5.3 5.5 5.6 5.7 5.8 5.7 5.7 5.7 5.8
5.9 5.9 5.9 5.9 5.9 5.8 5.7 5.7 5.7 5.5 5.5 5.7 5.7 5.7 5.7 5.6 5.5 5.6 5.6 5.7 5.5 5.2 4.8 4.7 4.8 4.8 4.9 5.1 5.1 5.1 4.9 5.2 5.2 5.1 5.4 5.5 5.6 5.9 6.1 6.0 5.8 5.6 5.4
Wind_Speed
3 4 5 7 7 8 7 6 6 6 7 9 10 8 8 10 12 11 14 15 18 22 24 22 21 22 21 20 19 19 19 19 18 18 16 15 14 13 12 12 11 10 10
4 4 3 3 4 9 8 8 6 4 5 6 5 8 9 11 12 12 15 15 17 20 24 24 21 22 22 23 23 22 22 22 20 20 18 16 18 17 16 15 14 13 13
4 3 2 2 5 5 9 8 7 7 4 4 6 5 7 10 10 12 13 15 14 20 24 26 24 23 23 24 24 25 24 24 23 23 21 19 17 18 18 18 17 16 16
7 3 2 3 8 3 2 2 2 3 4 4 4 4 4 6 9 12 12 14 13 13 17 23 26 25 25 26 26 26 25 25 24 23 22 22 21 20 19 19 18 18 18
5 4 3 5 7 3 2 3 3 3 3 3 4 4 4 4 7 8 10 13 14 15 13 18 24 25 27 27 28 28 26 26 24 24 24 24 24 23 21 20 21 20 19
7 7 4 5 6 3 3 3 4 2 4 4 4 6 5 5 5 5 7 9 9 14 16 15 15 19 27 27 29 27 27 27 27 26 26 26 25 25 24 23 22 21 21
8 7 4 4 4 4 4 4 2 5 3 2 2 3 3 5 5 4 4 4 6 11 11 16 15 13 15 26 27 19 25 26 26 26 26 27 27 26 26 25 24 23 22
8 6 4 4 5 4 4 4 4 2 2 3 2 0 3 4 3 3 2 4 5 6 6 11 11 13 14 13 14 26 32 28 23 25 26 26 27 27 28 26 26 25 24
9 9 7 5 4 3 3 4 3 4 3 2 5 3 1 3 3 3 3 2 2 3 4 3 9 11 13 13 13 15 21 22 23 26 20 23 25 26 29 28 27 26 25
1 3 6 5 2 2 4 4 4 4 3 3 2 2 3 2 1 4 1 2 2 4 5 4 4 6 10 10 13 12 14 16 17 19 19 16 23 25 27 28 27 27 26
5 7 4 2 3 3 3 4 4 3 2 2 2 1 1 1 2 3 4 3 3 4 4 4 4 4 7 10 12 14 16 20 24 24 23 12 2 16 26 28 27 28 27
3 4 5 3 3 3 4 3 3 1 1 2 2 3 2 2 2 2 3 3 4 4 4 5 5 5 10 12 13 12 15 16 18 18 12 12 8 14 17 27 28 28 27
3 5 4 4 3 4 5 5 4 4 4 2 1 1 2 2 2 2 2 3 3 2 3 4 6 5 9 12 13 16 14 16 13 18 18 14 17 16 18 24 26 28 27
3 4 5 4 5 6 5 5 3 4 5 4 4 3 2 2 1 2 2 2 4 2 2 5 3 4 6 10 14 15 16 10 12 15 15 15 12 9 13 17 23 26 27
1 3 4 5 5 4 5 5 4 4 4 4 4 5 2 2 3 3 2 3 2 3 3 2 2 2 4 8 11 10 13 10 13 12 16 13 10 7 11 17 21 22 25
3 4 4 4 5 5 5 4 4 4 5 4 3 5 4 3 4 4 3 2 2 3 4 2 3 4 4 4 11 11 12 12 12 13 16 15 12 15 15 16 19 21 23
2 3 2 3 4 5 5 5 5 5 5 5 4 5 5 4 4 4 4 3 2 2 4 3 2 2 3 5 6 7 11 9 11 13 16 18 20 18 14 13 18 21 23
4 4 4 3 5 5 5 5 5 5 5 5 5 5 5 4 5 4 3 4 3 4 3 6 2 2 4 4 5 5 5 8 7 13 18 18 20 21 21 20 19 20 22
4 5 4 5 4 4 4 4 4 5 5 5 5 5 5 5 5 3 3 4 3 3 4 4 4 2 3 2 3 3 4 4 7 14 19 22 22 21 21 23 24 24 24
2 3 3 3 3 1 2 4 5 5 5 4 5 5 5 5 5 5 4 5 4 4 3 3 3 3 3 2 2 2 3 2 4 4 9 12 11 10 16 20 23 23 23
1 1 0 0 1 0 3 5 5 5 5 5 5 5 4 9 10 6 3 4 4 3 3 3 3 2 3 3 2 1 2 3 3 3 3 2 2 2 5 14 14 17 18
4 4 4 4 4 2 5 8 7 5 5 5 5 5 4 8 9 11 11 9 4 2 3 2 2 3 5 3 2 2 2 2 3 1 3 4 2 3 4 6 12 16 14
4 4 5 5 3 2 3 7 9 4 5 5 5 4 5 6 8 7 10 10 8 7 2 3 3 2 4 2 4 3 2 2 3 3 3 3 1 3 3 7 11 16 17
3 3 5 5 2 2 3 7 8 5 5 5 5 5 5 6 6 6 5 6 6 5 5 3 2 3 3 6 5 2 2 3 3 2 2 2 3 2 4 4 6 3 8
3 2 3 5 4 5 1 5 4 4 5 5 5 5 4 5 10 7 5 6 6 6 7 10 6 6 8 10 8 1 2 1 2 2 4 3 2 3 3 3 5 12 11
3 4 5 5 7 4 3 5 4 3 5 4 5 5 7 7 8 6 4 4 5 4 5 5 5 5 8 7 11 5 3 2 2 3 4 4 4 3 4 1 3 5 9
Wind_Direction
214 202 212 223 231 232 237 253 255 244 245 248 249 245 258 256 245 246 243 239 228 223 224 224 220 219 221 223 222 223 226 223 217 218 220 214 214 213 216 224 230 228 221
202 202 215 232 247 243 226 231 237 252 250 247 258 253 245 241 240 243 250 248 234 233 228 233 231 231 225 225 226 227 223 224 224 223 224 224 216 212 215 223 228 235 238
205 206 247 258 247 267 235 237 244 247 244 247 246 246 250 249 242 241 241 248 251 238 223 225 230 233 233 229 228 227 227 225 223 225 225 223 224 221 220 218 222 232 238
198 208 230 253 271 260 229 233 266 276 248 237 252 254 248 233 243 244 240 237 229 234 226 230 230 229 233 234 232 229 227 228 226 224 225 225 226 226 225 225 224 225 233
216 208 235 264 263 238 227 232 243 222 264 265 256 252 251 240 242 241 241 231 216 228 234 236 228 228 230 234 231 229 230 229 226 223 224 227 226 228 226 223 225 227 232
211 220 236 266 258 248 237 234 237 236 240 250 285 283 266 245 232 211 233 249 226 226 212 229 245 235 230 232 233 232 233 228 227 227 225 224 228 229 227 225 225 225 226
224 230 229 239 234 247 261 221 222 235 280 223 269 295 281 248 249 241 214 226 239 238 216 214 220 228 233 234 234 236 258 238 232 230 229 229 224 227 228 227 224 224 225
218 232 229 228 236 221 236 257 227 242 261 197 219 65 330 330 324 284 223 218 239 218 227 220 227 232 232 236 230 218 231 238 237 240 240 234 231 227 225 225 224 222 224
241 227 234 248 227 195 238 243 222 215 250 276 208 183 288 255 326 336 15 323 280 240 260 238 196 233 241 229 233 228 229 235 238 237 251 246 234 230 232 223 221 222 222
137 275 280 297 303 204 233 245 234 226 196 257 305 223 239 188 244 318 336 317 337 258 235 240 247 226 251 235 234 228 234 218 218 226 227 232 231 229 229 226 224 221 220
308 306 334 304 307 256 258 246 276 225 214 268 206 304 284 233 203 214 293 304 312 250 247 232 240 267 238 231 235 226 221 220 222 224 226 208 225 243 233 227 224 222 221
28 17 61 80 49 48 37 23 352 313 242 245 254 243 228 225 229 203 246 275 244 273 239 222 221 230 228 226 226 230 231 231 229 239 229 229 237 262 251 233 226 224 223
6 24 28 29 26 26 29 21 20 22 30 19 342 277 210 228 219 200 193 255 257 266 270 227 225 229 224 231 235 237 249 255 257 243 249 248 246 253 245 235 231 227 226
62 354 5 20 25 24 14 18 28 15 13 9 5 11 317 331 255 215 223 225 294 269 254 229 250 218 217 240 244 245 248 232 244 250 246 255 251 250 249 246 236 229 222
53 30 17 16 14 23 29 17 23 21 6 1 3 4 356 2 360 332 262 220 229 292 285 299 279 282 233 232 247 252 251 235 238 260 278 276 278 274 268 254 251 240 229
14 17 12 14 8 19 19 29 28 17 32 13 13 14 3 349 350 347 336 293 231 247 275 225 242 258 278 268 258 255 259 274 271 265 268 265 274 272 258 248 249 243 229
2 2 354 7 21 37 41 46 26 27 22 3 357 355 334 330 327 333 327 327 298 251 275 297 250 273 276 275 281 270 274 267 274 264 260 265 269 274 258 254 245 243 239
346 340 355 31 83 69 53 43 24 10 10 355 342 342 324 328 321 310 307 311 291 281 260 279 274 278 243 274 266 287 269 269 259 280 282 276 276 274 264 255 255 244 241
15 26 30 92 81 59 42 24 16 357 348 340 327 317 306 314 313 310 307 296 289 288 267 259 284 269 262 265 303 280 288 269 254 264 270 272 268 260 250 244 247 241 239
33 46 52 107 138 77 19 22 6 3 350 333 315 301 299 301 291 300 295 292 289 302 289 275 284 284 264 280 257 287 313 314 309 293 272 264 268 264 245 243 245 249 247
289 295 164 188 174 332 25 9 6 3 356 350 346 348 20 37 36 27 351 322 306 296 300 294 280 283 287 320 300 299 278 297 284 252 303 309 291 258 241 237 246 241 244
283 294 287 264 244 95 19 15 21 8 3 6 356 353 3 25 8 3 352 341 320 287 277 264 277 292 287 280 289 258 274 319 317 343 10 298 237 292 288 261 238 236 233
325 335 335 310 96 95 36 10 15 15 11 359 355 350 12 5 4 352 347 350 348 357 347 277 277 271 290 281 303 295 252 235 246 288 12 284 272 282 268 270 253 246 252
312 319 331 359 3 304 2 5 9 5 4 356 356 350 1 344 354 1 342 350 348 338 348 309 290 317 315 311 259 247 283 289 296 324 20 293 334 299 323 3 24 324 285
313 302 304 309 282 276 258 8 22 357 348 346 342 357 9 348 349 11 24 3 353 3 0 34 48 14 350 355 5 9 339 341 305 345 14 346 324 314 322 340 1 25 16
293 303 301 262 255 246 157 40 30 354 340 344 335 352 360 4 4 357 28 13 7 344 348 2 8 3 9 4 12 24 9 24 353 12 3 344 335 357 336 336 355 15 5